Location: Goettingen
(51.5300°N, 9.9433°E)
Time: 22:59:07
(UTC+02:00)

ISS - Pass Details

Date: 28 July 2021
Orbit: 419 x 421 km, 51.6° (Epoch: 28 July)

Event Time Altitude Azimuth Distance (km) Brightness Sun altitude
Rises 22:20:55 0° 284° (WNW) 2,373 1.2 -8.8°
Reaches altitude 10° 22:23:08 10° 274° (W) 1,506 -0.2 -9.1°
Maximum altitude 22:26:12 33° 209° (SSW) 737 -2.7 -9.4°
Enters shadow 22:28:39 14° 149° (SSE) 1,280 -1.9 -9.7°
